This demonstration page uses our WeatherBlox Daily Observations layout. Learn more.

Left ArrowRight Arrow

39.95238, -75.16362

Hourly Observations for April 26, 2015

Temp ( °F °C ) Dew Point ( °F °C ) Humidity (%) Winds ( mph kmh ) Pressure ( in mb ) Visibility ( mi km ) Precip ( " mm )
12:54 am 00:54 Cloudy 48 8.9 37 2.8 66 66 W 7 11 29.69 1005 10 16 0.00 0.00
1:54 am 01:54 Mostly Cloudy 49 9.4 34 1.1 56 56 WNW 6 9 29.68 1005 10 16 0.00 0.00
2:54 am 02:54 Partly Cloudy 48 8.9 34 1.1 58 58 WNW 3 6 29.67 1005 10 16 0.00 0.00
3:54 am 03:54 Partly Cloudy 47 8.3 29 -1.7 50 50 NE 9 15 29.66 1004 10 16 0.00 0.00
4:54 am 04:54 Mostly Cloudy 48 8.9 29 -1.7 48 48 N 7 11 29.67 1005 10 16 0.00 0.00
5:54 am 05:54 Mostly Cloudy 48 8.9 29 -1.7 48 48 NNE 8 13 29.67 1005 10 16 0.00 0.00
6:54 am 06:54 Mostly Cloudy 49 9.4 28 -2.2 44 44 NNE 13 20 29.68 1005 10 16 0.00 0.00
7:54 am 07:54 Mostly Cloudy 49 9.4 29 -1.7 46 46 NE 15 24 29.69 1005 10 16 0.00 0.00
8:54 am 08:54 Mostly Cloudy 52 11.1 31 -0.6 45 45 NNE 14 22 29.70 1006 10 16 0.00 0.00
9:54 am 09:54 Partly Cloudy 53 11.7 32 0 45 45 NNE 10 17 29.71 1006 10 16 0.00 0.00
10:54 am 10:54 Partly Cloudy 57 13.9 33 0.6 41 41 NNE 9 15 29.71 1006 10 16 0.00 0.00
11:54 am 11:54 Mostly Sunny 59 15 33 0.6 38 38 NE 10 17 29.71 1006 10 16 0.00 0.00
12:54 pm 12:54 Mostly Sunny 61 16.1 30 -1.1 31 31 SSE 6 9 29.70 1006 10 16 0.00 0.00
1:54 pm 13:54 Partly Cloudy 62 16.7 31 -0.6 31 31 ESE 8 13 29.68 1005 10 16 0.00 0.00
2:54 pm 14:54 Partly Cloudy 60 15.6 30 -1.1 32 32 VRB 5 7 29.67 1005 10 16 0.00 0.00
3:54 pm 15:54 Mostly Cloudy 60 15.6 28 -2.2 30 30 VRB 3 6 29.67 1005 10 16 0.00 0.00
4:54 pm 16:54 Mostly Cloudy 61 16.1 29 -1.7 30 30 Calm 29.67 1005 10 16 0.00 0.00
5:54 pm 17:54 Mostly Cloudy 62 16.7 27 -2.8 26 26 S 3 6 29.67 1005 10 16 0.00 0.00
6:54 pm 18:54 Mostly Cloudy 61 16.1 26 -3.3 26 26 NNW 9 15 29.67 1005 10 16 0.00 0.00
7:54 pm 19:54 Mostly Cloudy 60 15.6 27 -2.8 28 28 N 5 7 29.68 1005 10 16 0.00 0.00
8:54 pm 20:54 Mostly Cloudy 59 15 28 -2.2 31 31 NNE 12 19 29.69 1006 10 16 0.00 0.00
9:54 pm 21:54 Mostly Cloudy 54 12.2 35 1.7 49 49 S 7 11 29.72 1007 10 16 0.00 0.00
10:54 pm 22:54 Mostly Cloudy 52 11.1 35 1.7 53 53 SW 3 6 29.74 1007 10 16 0.00 0.00
11:54 pm 23:54 Mostly Clear 53 11.7 29 -1.7 40 40 N 5 7 29.74 1007 10 16 0.00 0.00

Powered by AerisWeather